Location: Calvin Observatory
(42.9309°N, 85.5886°W)
Time: 09:24:33
(UTC-04:00)

ISS - Visible Passes

Search period start: 23 May 2015 00:00
Search period end: 02 June 2015 00:00
Orbit: 399 x 404 km, 51.6° (Epoch: 23 May)

Date Brightness Start Highest point End Pass type
(mag) Time Alt. Az. Time Alt. Az. Time Alt. Az.
23 May -1.3 02:48:10 27° NE 02:48:10 27° NE 02:49:48 10° NE visible
23 May -1.1 04:20:44 10° WNW 04:23:19 22° NNW 04:25:58 10° NE visible
24 May -1.6 03:29:10 26° NW 03:29:54 28° NNW 03:32:49 10° NE visible
24 May -0.6 05:04:47 10° NW 05:07:04 17° N 05:09:22 10° NE visible
25 May -1.5 02:37:33 31° NNE 02:37:33 31° NNE 02:39:40 10° NE visible
25 May -0.6 04:11:11 10° NW 04:13:34 18° N 04:15:56 10° NE visible
26 May -0.5 01:45:51 15° NE 01:45:51 15° NE 01:46:29 10° NE visible
26 May -0.9 03:18:24 15° NW 03:20:04 21° NNW 03:22:38 10° NE visible
26 May -0.5 04:54:54 10° NW 04:57:18 19° N 04:59:43 10° NE visible
27 May -1.3 02:26:35 26° NNW 02:26:35 26° NNW 02:29:24 10° NE visible
27 May -0.4 04:01:27 10° NW 04:03:45 17° N 04:06:03 10° NE visible
28 May -1.0 01:34:38 23° NNE 01:34:38 23° NNE 01:36:11 10° NE visible
28 May -0.5 03:07:50 10° NW 03:10:10 18° N 03:12:30 10° NE visible
28 May -0.8 04:44:41 10° NW 04:47:22 23° NNE 04:50:05 10° ENE visible
29 May -0.6 00:42:25 14° NE 00:42:25 14° NE 00:42:56 10° NE visible
29 May -0.6 02:14:55 14° NW 02:16:35 20° N 02:19:05 10° NE visible
29 May -0.5 03:51:22 10° NW 03:53:49 19° N 03:56:16 10° ENE visible
29 May -2.4 05:27:33 10° NW 05:30:45 53° NNE 05:33:57 10° ESE visible
30 May -1.0 01:22:04 21° NW 01:23:00 25° NNW 01:25:46 10° NE visible
30 May -0.3 02:57:54 10° NW 03:00:12 18° N 03:02:30 10° NE visible
30 May -1.5 04:34:17 10° NW 04:37:17 33° NNE 04:40:18 10° E visible
30 May -2.9 22:50:02 10° SSW 22:53:02 36° SE 22:56:04 10° ENE visible
31 May -1.6 00:26:27 10° W 00:29:27 34° NNW 00:32:29 10° NE visible
31 May -0.3 02:04:14 10° NW 02:06:32 18° N 02:08:50 10° NE visible
31 May -0.9 03:40:59 10° NW 03:43:44 24° NNE 03:46:29 10° ENE visible
31 May -3.4 05:17:09 10° WNW 05:20:24 75° SW 05:23:40 10° SE visible
31 May -2.0 21:57:24 10° S 21:59:46 19° SE 22:02:13 10° E visible
31 May -2.6 23:32:46 10° WSW 23:35:57 54° NNW 23:39:09 10° NE visible
01 Jun -0.5 01:10:25 10° WNW 01:12:52 19° N 01:15:19 10° NE visible
01 Jun -0.5 02:47:36 10° NW 02:50:06 20° N 02:52:36 10° ENE visible
01 Jun -2.8 04:23:45 10° NW 04:26:59 60° NNE 04:30:13 10° ESE visible
01 Jun -3.5 22:39:15 10° SW 22:42:30 83° SE 22:45:45 10° ENE visible
